Year,Month,Day,Hour,Minute,Value (Times are PST for windgust in km/hr)
2018,04,26,00,01,4.80
2018,04,26,00,02,1.60
2018,04,26,00,03,1.60
2018,04,26,00,04,3.20
2018,04,26,00,05,3.20
2018,04,26,00,06,3.20
2018,04,26,00,08,4.80
2018,04,26,00,09,4.80
2018,04,26,00,11,1.60
2018,04,26,00,12,3.20
2018,04,26,00,13,6.40
2018,04,26,00,15,4.80
2018,04,26,00,16,6.40
2018,04,26,00,17,4.80
2018,04,26,00,18,4.80
2018,04,26,00,19,6.40
2018,04,26,00,20,3.20
2018,04,26,00,21,4.80
2018,04,26,00,22,3.20
2018,04,26,00,23,6.40
2018,04,26,00,24,4.80
2018,04,26,00,25,6.40
2018,04,26,00,26,6.40
2018,04,26,00,27,6.40
2018,04,26,00,28,8.10
2018,04,26,00,29,6.40
2018,04,26,00,30,6.40
2018,04,26,00,31,4.80
2018,04,26,00,32,8.10
2018,04,26,00,33,4.80
2018,04,26,00,34,1.60
2018,04,26,00,35,4.80
2018,04,26,00,36,3.20
2018,04,26,00,37,1.60
2018,04,26,00,38,1.60
2018,04,26,00,42,1.60
2018,04,26,00,43,4.80
2018,04,26,00,44,3.20
2018,04,26,00,46,1.60
2018,04,26,00,47,3.20
2018,04,26,00,48,1.60
2018,04,26,00,49,3.20
2018,04,26,00,50,3.20
2018,04,26,00,55,3.20
2018,04,26,00,56,4.80
2018,04,26,00,57,3.20
2018,04,26,00,58,3.20
2018,04,26,00,59,4.80
2018,04,26,01,00,1.60
2018,04,26,01,02,1.60
2018,04,26,01,03,3.20
2018,04,26,01,04,3.20
2018,04,26,01,05,4.80
2018,04,26,01,06,3.20
2018,04,26,01,07,3.20
2018,04,26,01,08,1.60
2018,04,26,01,10,3.20
2018,04,26,01,11,3.20
2018,04,26,01,12,4.80
2018,04,26,01,13,4.80
2018,04,26,01,14,3.20
2018,04,26,01,15,4.80
2018,04,26,01,16,3.20
2018,04,26,01,17,4.80
2018,04,26,01,18,4.80
2018,04,26,01,19,4.80
2018,04,26,01,20,4.80
2018,04,26,01,21,4.80
2018,04,26,01,22,3.20
2018,04,26,01,23,3.20
2018,04,26,01,24,3.20
2018,04,26,01,25,4.80
2018,04,26,01,26,4.80
2018,04,26,01,27,3.20
2018,04,26,01,28,3.20
2018,04,26,01,29,1.60
2018,04,26,01,37,1.60
2018,04,26,01,38,1.60
2018,04,26,01,46,1.60
2018,04,26,01,47,3.20
2018,04,26,01,49,1.60
2018,04,26,01,52,1.60
2018,04,26,01,53,1.60
2018,04,26,01,54,1.60
2018,04,26,01,55,3.20
2018,04,26,01,56,3.20
2018,04,26,01,58,1.60
2018,04,26,01,59,1.60
2018,04,26,02,00,3.20
2018,04,26,02,01,3.20
2018,04,26,02,02,4.80
2018,04,26,02,03,6.40
2018,04,26,02,04,3.20
2018,04,26,02,05,1.60
2018,04,26,02,06,1.60
2018,04,26,02,07,1.60
2018,04,26,02,08,1.60
2018,04,26,02,09,4.80
2018,04,26,02,10,1.60
2018,04,26,02,11,3.20
2018,04,26,02,12,3.20
2018,04,26,02,14,1.60
2018,04,26,02,15,3.20
2018,04,26,02,16,8.10
2018,04,26,02,17,6.40
2018,04,26,02,18,1.60
2018,04,26,02,19,3.20
2018,04,26,02,20,3.20
2018,04,26,02,21,3.20
2018,04,26,02,22,1.60
2018,04,26,02,23,3.20
2018,04,26,02,24,3.20
2018,04,26,02,25,1.60
2018,04,26,02,26,4.80
2018,04,26,02,27,3.20
2018,04,26,02,28,3.20
2018,04,26,02,29,6.40
2018,04,26,02,30,9.60
2018,04,26,02,31,4.80
2018,04,26,02,32,4.80
2018,04,26,02,33,6.40
2018,04,26,02,34,6.40
2018,04,26,02,35,1.60
2018,04,26,02,36,1.60
2018,04,26,02,37,1.60
2018,04,26,02,38,4.80
2018,04,26,02,42,3.20
2018,04,26,02,44,1.60
2018,04,26,02,45,3.20
2018,04,26,02,47,3.20
2018,04,26,02,48,4.80
2018,04,26,02,49,3.20
2018,04,26,02,50,4.80
2018,04,26,02,51,3.20
2018,04,26,02,52,1.60
2018,04,26,02,54,3.20
2018,04,26,02,55,1.60
2018,04,26,02,57,3.20
2018,04,26,03,02,1.60
2018,04,26,03,07,1.60
2018,04,26,03,09,3.20
2018,04,26,03,10,3.20
2018,04,26,03,11,3.20
2018,04,26,03,12,3.20
2018,04,26,03,14,3.20
2018,04,26,03,15,3.20
2018,04,26,03,16,3.20
2018,04,26,03,17,3.20
2018,04,26,03,18,1.60
2018,04,26,03,19,4.80
2018,04,26,03,20,4.80
2018,04,26,03,21,1.60
2018,04,26,03,22,1.60
2018,04,26,03,23,3.20
2018,04,26,03,24,3.20
2018,04,26,03,25,1.60
2018,04,26,03,35,1.60
2018,04,26,03,36,3.20
2018,04,26,03,43,3.20
2018,04,26,03,44,3.20
2018,04,26,03,45,3.20
2018,04,26,03,46,3.20
2018,04,26,03,47,3.20
2018,04,26,03,48,1.60
2018,04,26,03,51,1.60
2018,04,26,03,52,3.20
2018,04,26,03,54,4.80
2018,04,26,03,55,1.60
2018,04,26,03,56,1.60
2018,04,26,03,57,1.60
2018,04,26,03,58,1.60
2018,04,26,03,59,4.80
2018,04,26,04,00,3.20
2018,04,26,04,01,1.60
2018,04,26,04,02,4.80
2018,04,26,04,03,3.20
2018,04,26,04,04,3.20
2018,04,26,04,05,4.80
2018,04,26,04,06,4.80
2018,04,26,04,07,1.60
2018,04,26,04,10,3.20
2018,04,26,04,11,3.20
2018,04,26,04,12,1.60
2018,04,26,04,15,1.60
2018,04,26,04,16,1.60
2018,04,26,04,17,1.60
2018,04,26,04,19,3.20
2018,04,26,04,20,4.80
2018,04,26,04,21,3.20
2018,04,26,04,24,3.20
2018,04,26,04,25,1.60
2018,04,26,04,34,1.60
2018,04,26,04,35,4.80
2018,04,26,04,36,4.80
2018,04,26,04,37,4.80
2018,04,26,04,38,3.20
2018,04,26,04,39,4.80
2018,04,26,04,40,3.20
2018,04,26,04,41,3.20
2018,04,26,04,43,1.60
2018,04,26,04,44,1.60
2018,04,26,04,45,3.20
2018,04,26,04,46,3.20
2018,04,26,04,47,3.20
2018,04,26,04,48,4.80
2018,04,26,04,49,4.80
2018,04,26,04,50,4.80
2018,04,26,04,51,3.20
2018,04,26,04,52,4.80
2018,04,26,04,53,4.80
2018,04,26,04,54,4.80
2018,04,26,04,55,3.20
2018,04,26,04,56,3.20
2018,04,26,04,57,3.20
2018,04,26,04,58,1.60
2018,04,26,04,59,3.20
2018,04,26,05,00,3.20
2018,04,26,05,01,4.80
2018,04,26,05,02,3.20
2018,04,26,05,03,4.80
2018,04,26,05,04,4.80
2018,04,26,05,06,3.20
2018,04,26,05,07,3.20
2018,04,26,05,08,1.60
2018,04,26,05,09,3.20
2018,04,26,05,10,4.80
2018,04,26,05,11,3.20
2018,04,26,05,12,3.20
2018,04,26,05,14,1.60
2018,04,26,05,16,4.80
2018,04,26,05,17,1.60
2018,04,26,05,18,3.20
2018,04,26,05,19,4.80
2018,04,26,05,20,3.20
2018,04,26,05,21,3.20
2018,04,26,05,22,3.20
2018,04,26,05,23,4.80
2018,04,26,05,24,3.20
2018,04,26,05,25,1.60
2018,04,26,05,26,3.20
2018,04,26,05,27,3.20
2018,04,26,05,28,1.60
2018,04,26,05,29,3.20
2018,04,26,05,30,1.60
2018,04,26,05,31,3.20
2018,04,26,05,32,3.20
2018,04,26,05,33,3.20
2018,04,26,05,34,3.20
2018,04,26,05,35,3.20
2018,04,26,05,40,1.60
2018,04,26,05,41,4.80
2018,04,26,05,42,3.20
2018,04,26,05,43,3.20
2018,04,26,05,45,3.20
2018,04,26,05,46,3.20
2018,04,26,05,47,3.20
2018,04,26,05,48,3.20
2018,04,26,05,49,3.20
2018,04,26,05,50,3.20
2018,04,26,05,51,1.60
2018,04,26,05,52,1.60
2018,04,26,05,53,4.80
2018,04,26,05,54,3.20
2018,04,26,05,55,1.60
2018,04,26,05,56,1.60
2018,04,26,05,57,3.20
2018,04,26,05,58,3.20
2018,04,26,05,59,3.20
2018,04,26,06,00,3.20
2018,04,26,06,01,1.60
2018,04,26,06,02,1.60
2018,04,26,06,04,3.20
2018,04,26,06,05,4.80
2018,04,26,06,06,3.20
2018,04,26,06,07,3.20
2018,04,26,06,08,3.20
2018,04,26,06,09,4.80
2018,04,26,06,10,3.20
2018,04,26,06,11,3.20
2018,04,26,06,12,1.60
2018,04,26,06,13,4.80
2018,04,26,06,14,4.80
2018,04,26,06,15,1.60
2018,04,26,06,16,1.60
2018,04,26,06,17,1.60
2018,04,26,06,18,1.60
2018,04,26,06,19,1.60
2018,04,26,06,21,4.80
2018,04,26,06,22,3.20
2018,04,26,06,23,3.20
2018,04,26,06,24,3.20
2018,04,26,06,25,3.20
2018,04,26,06,26,3.20
2018,04,26,06,27,3.20
2018,04,26,06,28,3.20
2018,04,26,06,29,1.60
2018,04,26,06,30,1.60
2018,04,26,06,31,1.60
2018,04,26,06,35,3.20
2018,04,26,06,36,3.20
2018,04,26,06,37,1.60
2018,04,26,06,38,4.80
2018,04,26,06,39,3.20
2018,04,26,06,40,1.60
2018,04,26,06,44,1.60
2018,04,26,06,45,4.80
2018,04,26,06,46,3.20
2018,04,26,06,47,3.20
2018,04,26,06,48,1.60
2018,04,26,06,49,3.20
2018,04,26,06,50,3.20
2018,04,26,06,53,3.20
2018,04,26,06,54,3.20
2018,04,26,06,55,3.20
2018,04,26,06,56,3.20
2018,04,26,06,57,4.80
2018,04,26,06,58,1.60
2018,04,26,06,59,4.80
2018,04,26,07,00,1.60
2018,04,26,07,01,4.80
2018,04,26,07,02,4.80
2018,04,26,07,03,4.80
2018,04,26,07,04,3.20
2018,04,26,07,05,4.80
2018,04,26,07,08,1.60
2018,04,26,07,09,1.60
2018,04,26,07,10,4.80
2018,04,26,07,11,1.60
2018,04,26,07,12,4.80
2018,04,26,07,13,3.20
2018,04,26,07,14,1.60
2018,04,26,07,15,1.60
2018,04,26,07,16,3.20
2018,04,26,07,17,1.60
2018,04,26,07,20,1.60
2018,04,26,07,21,3.20
2018,04,26,07,22,3.20
2018,04,26,07,23,1.60
2018,04,26,07,24,1.60
2018,04,26,07,25,3.20
2018,04,26,07,26,3.20
2018,04,26,07,27,4.80
2018,04,26,07,28,4.80
2018,04,26,07,29,3.20
2018,04,26,07,30,1.60
2018,04,26,07,31,1.60
2018,04,26,07,33,1.60
2018,04,26,07,34,3.20
2018,04,26,07,35,3.20
2018,04,26,07,37,1.60
2018,04,26,07,38,3.20
2018,04,26,07,39,1.60
2018,04,26,07,40,1.60
2018,04,26,07,41,1.60
2018,04,26,07,44,1.60
2018,04,26,07,45,3.20
2018,04,26,07,46,3.20
2018,04,26,07,47,4.80
2018,04,26,07,48,4.80
2018,04,26,07,49,4.80
2018,04,26,07,50,4.80
2018,04,26,07,51,4.80
2018,04,26,07,52,4.80
2018,04,26,07,53,4.80
2018,04,26,07,54,3.20
2018,04,26,07,55,4.80
2018,04,26,07,56,4.80
2018,04,26,07,57,1.60
2018,04,26,07,58,3.20
2018,04,26,07,59,3.20
2018,04,26,08,00,3.20
2018,04,26,08,01,4.80
2018,04,26,08,02,3.20
2018,04,26,08,03,1.60
2018,04,26,08,06,1.60
2018,04,26,08,07,1.60
2018,04,26,08,08,1.60
2018,04,26,08,09,4.80
2018,04,26,08,10,1.60
2018,04,26,08,11,3.20
2018,04,26,08,13,4.80
2018,04,26,08,14,4.80
2018,04,26,08,15,4.80
2018,04,26,08,16,3.20
2018,04,26,08,17,3.20
2018,04,26,08,19,3.20
2018,04,26,08,20,4.80
2018,04,26,08,21,4.80
2018,04,26,08,22,3.20
2018,04,26,08,23,4.80
2018,04,26,08,24,6.40
2018,04,26,08,25,6.40
2018,04,26,08,26,4.80
2018,04,26,08,27,8.10
2018,04,26,08,28,4.80
2018,04,26,08,29,6.40
2018,04,26,08,30,6.40
2018,04,26,08,31,6.40
2018,04,26,08,32,6.40
2018,04,26,08,33,4.80
2018,04,26,08,34,3.20
2018,04,26,08,35,6.40
2018,04,26,08,36,6.40
2018,04,26,08,37,9.60
2018,04,26,08,38,8.10
2018,04,26,08,39,6.40
2018,04,26,08,40,6.40
2018,04,26,08,41,4.80
2018,04,26,08,42,8.10
2018,04,26,08,43,4.80
2018,04,26,08,44,6.40
2018,04,26,08,45,8.10
2018,04,26,08,46,6.40
2018,04,26,08,47,6.40
2018,04,26,08,48,11.30
2018,04,26,08,49,8.10
2018,04,26,08,50,4.80
2018,04,26,08,51,3.20
2018,04,26,08,52,6.40
2018,04,26,08,53,8.10
2018,04,26,08,54,4.80
2018,04,26,08,55,4.80
2018,04,26,08,56,8.10
2018,04,26,08,57,9.60
2018,04,26,08,58,6.40
2018,04,26,08,59,4.80
2018,04,26,09,00,4.80
2018,04,26,09,01,9.60
2018,04,26,09,02,6.40
2018,04,26,09,03,6.40
2018,04,26,09,04,6.40
2018,04,26,09,05,6.40
2018,04,26,09,06,3.20
2018,04,26,09,07,4.80
2018,04,26,09,08,8.10
2018,04,26,09,09,6.40
2018,04,26,09,10,6.40
2018,04,26,09,11,6.40
2018,04,26,09,12,6.40
2018,04,26,09,13,8.10
2018,04,26,09,14,8.10
2018,04,26,09,15,8.10
2018,04,26,09,16,6.40
2018,04,26,09,17,6.40
2018,04,26,09,18,4.80
2018,04,26,09,19,4.80
2018,04,26,09,20,6.40
2018,04,26,09,21,3.20
2018,04,26,09,22,1.60
2018,04,26,09,23,6.40
2018,04,26,09,24,6.40
2018,04,26,09,25,8.10
2018,04,26,09,26,6.40
2018,04,26,09,27,8.10
2018,04,26,09,28,6.40
2018,04,26,09,29,4.80
2018,04,26,09,30,3.20
2018,04,26,09,31,9.60
2018,04,26,09,32,6.40
2018,04,26,09,33,4.80
2018,04,26,09,34,4.80
2018,04,26,09,35,8.10
2018,04,26,09,36,8.10
2018,04,26,09,37,8.10
2018,04,26,09,38,6.40
2018,04,26,09,39,6.40
2018,04,26,09,40,8.10
2018,04,26,09,41,8.10
2018,04,26,09,42,4.80
2018,04,26,09,43,6.40
2018,04,26,09,44,6.40
2018,04,26,09,45,6.40
2018,04,26,09,46,6.40
2018,04,26,09,47,3.20
2018,04,26,09,49,6.40
2018,04,26,09,50,6.40
2018,04,26,09,51,4.80
2018,04,26,09,52,11.30
2018,04,26,09,53,8.10
2018,04,26,09,54,8.10
2018,04,26,09,55,3.20
2018,04,26,09,56,4.80
2018,04,26,09,57,8.10
2018,04,26,09,58,6.40
2018,04,26,09,59,4.80
2018,04,26,10,00,8.10
2018,04,26,10,01,8.10
2018,04,26,10,02,8.10
2018,04,26,10,03,3.20
2018,04,26,10,04,8.10
2018,04,26,10,05,4.80
2018,04,26,10,06,9.60
2018,04,26,10,07,4.80
2018,04,26,10,08,4.80
2018,04,26,10,09,4.80
2018,04,26,10,10,9.60
2018,04,26,10,11,9.60
2018,04,26,10,12,8.10
2018,04,26,10,13,4.80
2018,04,26,10,14,1.60
2018,04,26,10,15,1.60
2018,04,26,10,16,3.20
2018,04,26,10,17,3.20
2018,04,26,10,18,6.40
2018,04,26,10,19,1.60
2018,04,26,10,20,1.60
2018,04,26,10,21,4.80
2018,04,26,10,22,6.40
2018,04,26,10,23,3.20
2018,04,26,10,24,14.50
2018,04,26,10,25,12.90
2018,04,26,10,26,9.60
2018,04,26,10,27,8.10
2018,04,26,10,28,8.10
2018,04,26,10,29,6.40
2018,04,26,10,30,12.90
2018,04,26,10,31,11.30
2018,04,26,10,32,9.60
2018,04,26,10,33,8.10
2018,04,26,10,34,4.80
2018,04,26,10,35,11.30
2018,04,26,10,36,6.40
2018,04,26,10,37,9.60
2018,04,26,10,38,11.30
2018,04,26,10,39,11.30
2018,04,26,10,40,12.90
2018,04,26,10,41,9.60
2018,04,26,10,42,12.90
2018,04,26,10,43,9.60
2018,04,26,10,44,12.90
2018,04,26,10,45,14.50
2018,04,26,10,46,16.10
2018,04,26,10,47,11.30
2018,04,26,10,48,4.80
2018,04,26,10,49,8.10
2018,04,26,10,50,8.10
2018,04,26,10,51,9.60
2018,04,26,10,52,6.40
2018,04,26,10,53,4.80
2018,04,26,10,54,11.30
2018,04,26,10,55,11.30
2018,04,26,10,56,9.60
2018,04,26,10,57,8.10
2018,04,26,10,58,11.30
2018,04,26,10,59,9.60
2018,04,26,11,00,6.40
2018,04,26,11,01,11.30
2018,04,26,11,02,4.80
2018,04,26,11,03,6.40
2018,04,26,11,04,8.10
2018,04,26,11,05,4.80
2018,04,26,11,06,9.60
2018,04,26,11,07,8.10
2018,04,26,11,08,6.40
2018,04,26,11,09,9.60
2018,04,26,11,10,11.30
2018,04,26,11,11,11.30
2018,04,26,11,12,9.60
2018,04,26,11,13,6.40
2018,04,26,11,14,6.40
2018,04,26,11,15,6.40
2018,04,26,11,16,6.40
2018,04,26,11,17,6.40
2018,04,26,11,18,11.30
2018,04,26,11,19,9.60
2018,04,26,11,20,8.10
2018,04,26,11,21,9.60
2018,04,26,11,22,8.10
2018,04,26,11,23,6.40
2018,04,26,11,24,6.40
2018,04,26,11,25,3.20
2018,04,26,11,26,4.80
2018,04,26,11,27,3.20
2018,04,26,11,28,8.10
2018,04,26,11,29,6.40
2018,04,26,11,30,6.40
2018,04,26,11,31,1.60
2018,04,26,11,33,3.20
2018,04,26,11,34,6.40
2018,04,26,11,35,3.20
2018,04,26,11,36,3.20
2018,04,26,11,37,9.60
2018,04,26,11,38,6.40
2018,04,26,11,39,6.40
2018,04,26,11,41,1.60
2018,04,26,11,42,1.60
2018,04,26,11,43,6.40
2018,04,26,11,44,8.10
2018,04,26,11,45,9.60
2018,04,26,11,46,6.40
2018,04,26,11,47,1.60
2018,04,26,11,48,3.20
2018,04,26,11,49,3.20
2018,04,26,11,51,6.40
2018,04,26,11,52,4.80
2018,04,26,11,53,4.80
2018,04,26,11,54,3.20
2018,04,26,11,55,3.20
2018,04,26,11,56,8.10
2018,04,26,11,57,4.80
2018,04,26,11,58,3.20
2018,04,26,11,59,1.60
2018,04,26,12,00,4.80
2018,04,26,12,01,3.20
2018,04,26,12,02,3.20
2018,04,26,12,03,4.80
2018,04,26,12,04,4.80
2018,04,26,12,05,3.20
2018,04,26,12,06,1.60
2018,04,26,12,07,1.60
2018,04,26,12,08,1.60
2018,04,26,12,09,1.60
2018,04,26,12,10,3.20
2018,04,26,12,11,4.80
2018,04,26,12,12,4.80
2018,04,26,12,13,4.80
2018,04,26,12,14,1.60
2018,04,26,12,15,1.60
2018,04,26,12,16,3.20
2018,04,26,12,17,9.60
2018,04,26,12,18,1.60
2018,04,26,12,19,6.40
2018,04,26,12,20,4.80
2018,04,26,12,21,1.60
2018,04,26,12,22,4.80
2018,04,26,12,23,6.40
2018,04,26,12,24,6.40
2018,04,26,12,26,3.20
2018,04,26,12,27,3.20
2018,04,26,12,28,4.80
2018,04,26,12,29,4.80
2018,04,26,12,30,6.40
2018,04,26,12,31,6.40
2018,04,26,12,32,4.80
2018,04,26,12,33,3.20
2018,04,26,12,36,3.20
2018,04,26,12,37,4.80
2018,04,26,12,38,1.60
2018,04,26,12,39,3.20
2018,04,26,12,40,4.80
2018,04,26,12,41,1.60
2018,04,26,12,43,3.20
2018,04,26,12,44,3.20
2018,04,26,12,45,3.20
2018,04,26,12,46,8.10
2018,04,26,12,47,4.80
2018,04,26,12,48,4.80
2018,04,26,12,49,1.60
2018,04,26,12,50,1.60
2018,04,26,12,51,1.60
2018,04,26,12,52,4.80
2018,04,26,12,53,6.40
2018,04,26,12,54,8.10
2018,04,26,12,55,3.20
2018,04,26,12,56,3.20
2018,04,26,12,57,6.40
2018,04,26,12,58,8.10
2018,04,26,12,59,6.40
2018,04,26,13,00,3.20
2018,04,26,13,01,1.60
2018,04,26,13,02,4.80
2018,04,26,13,03,6.40
2018,04,26,13,04,1.60
2018,04,26,13,05,3.20
2018,04,26,13,06,4.80
2018,04,26,13,07,1.60
2018,04,26,13,09,3.20
2018,04,26,13,10,1.60
2018,04,26,13,11,3.20
2018,04,26,13,12,4.80
2018,04,26,13,13,9.60
2018,04,26,13,14,9.60
2018,04,26,13,15,11.30
2018,04,26,13,16,14.50
2018,04,26,13,17,12.90
2018,04,26,13,18,9.60
2018,04,26,13,19,8.10
2018,04,26,13,20,8.10
2018,04,26,13,21,6.40
2018,04,26,13,23,4.80
2018,04,26,13,24,9.60
2018,04,26,13,25,8.10
2018,04,26,13,26,6.40
2018,04,26,13,27,6.40
2018,04,26,13,28,9.60
2018,04,26,13,29,12.90
2018,04,26,13,30,11.30
2018,04,26,13,31,14.50
2018,04,26,13,32,6.40
2018,04,26,13,33,8.10
2018,04,26,13,34,3.20
2018,04,26,13,35,8.10
2018,04,26,13,36,9.60
2018,04,26,13,37,8.10
2018,04,26,13,38,6.40
2018,04,26,13,39,8.10
2018,04,26,13,40,9.60
2018,04,26,13,41,6.40
2018,04,26,13,42,6.40
2018,04,26,13,43,4.80
2018,04,26,13,44,4.80
2018,04,26,13,45,9.60
2018,04,26,13,46,9.60
2018,04,26,13,47,4.80
2018,04,26,13,48,4.80
2018,04,26,13,49,8.10
2018,04,26,13,50,9.60
2018,04,26,13,51,6.40
2018,04,26,13,52,9.60
2018,04,26,13,53,14.50
2018,04,26,13,54,16.10
2018,04,26,13,55,11.30
2018,04,26,13,56,9.60
2018,04,26,13,57,8.10
2018,04,26,13,58,9.60
2018,04,26,13,59,8.10
2018,04,26,14,00,6.40
2018,04,26,14,01,9.60
2018,04,26,14,02,8.10
2018,04,26,14,03,8.10
2018,04,26,14,04,9.60
2018,04,26,14,05,6.40
2018,04,26,14,06,3.20
2018,04,26,14,07,6.40
2018,04,26,14,08,6.40
2018,04,26,14,09,8.10
2018,04,26,14,11,3.20
2018,04,26,14,12,3.20
2018,04,26,14,13,1.60
2018,04,26,14,14,4.80
2018,04,26,14,15,1.60
2018,04,26,14,17,1.60
2018,04,26,14,18,1.60
2018,04,26,14,19,3.20
2018,04,26,14,20,1.60
2018,04,26,14,21,1.60
2018,04,26,14,22,6.40
2018,04,26,14,23,4.80
2018,04,26,14,24,3.20
2018,04,26,14,25,1.60
2018,04,26,14,26,3.20
2018,04,26,14,27,3.20
2018,04,26,14,28,8.10
2018,04,26,14,29,6.40
2018,04,26,14,30,4.80
2018,04,26,14,31,8.10
2018,04,26,14,32,6.40
2018,04,26,14,33,8.10
2018,04,26,14,34,8.10
2018,04,26,14,35,9.60
2018,04,26,14,36,11.30
2018,04,26,14,37,11.30
2018,04,26,14,38,8.10
2018,04,26,14,39,9.60
2018,04,26,14,40,6.40
2018,04,26,14,41,6.40
2018,04,26,14,42,8.10
2018,04,26,14,43,8.10
2018,04,26,14,44,8.10
2018,04,26,14,45,4.80
2018,04,26,14,46,8.10
2018,04,26,14,47,9.60
2018,04,26,14,48,8.10
2018,04,26,14,49,8.10
2018,04,26,14,50,8.10
2018,04,26,14,51,6.40
2018,04,26,14,52,9.60
2018,04,26,14,53,6.40
2018,04,26,14,54,6.40
2018,04,26,14,55,9.60
2018,04,26,14,56,9.60
2018,04,26,14,57,6.40
2018,04,26,14,58,4.80
2018,04,26,14,59,6.40
2018,04,26,15,00,8.10
2018,04,26,15,01,8.10
2018,04,26,15,02,9.60
2018,04,26,15,03,8.10
2018,04,26,15,04,9.60
2018,04,26,15,05,6.40
2018,04,26,15,06,9.60
2018,04,26,15,07,9.60
2018,04,26,15,08,11.30
2018,04,26,15,09,9.60
2018,04,26,15,10,9.60
2018,04,26,15,11,8.10
2018,04,26,15,12,8.10
2018,04,26,15,13,11.30
2018,04,26,15,14,8.10
2018,04,26,15,15,9.60
2018,04,26,15,16,9.60
2018,04,26,15,17,9.60
2018,04,26,15,18,6.40
2018,04,26,15,19,8.10
2018,04,26,15,20,6.40
2018,04,26,15,21,8.10
2018,04,26,15,22,6.40
2018,04,26,15,23,8.10
2018,04,26,15,24,8.10
2018,04,26,15,25,3.20
2018,04,26,15,26,8.10
2018,04,26,15,27,6.40
2018,04,26,15,28,8.10
2018,04,26,15,29,8.10
2018,04,26,15,30,4.80
2018,04,26,15,31,4.80
2018,04,26,15,32,8.10
2018,04,26,15,33,8.10
2018,04,26,15,34,8.10
2018,04,26,15,35,8.10
2018,04,26,15,36,6.40
2018,04,26,15,37,8.10
2018,04,26,15,38,6.40
2018,04,26,15,39,8.10
2018,04,26,15,40,8.10
2018,04,26,15,41,8.10
2018,04,26,15,42,8.10
2018,04,26,15,43,8.10
2018,04,26,15,44,6.40
2018,04,26,15,45,6.40
2018,04,26,15,46,8.10
2018,04,26,15,47,8.10
2018,04,26,15,48,8.10
2018,04,26,15,49,8.10
2018,04,26,15,50,8.10
2018,04,26,15,51,9.60
2018,04,26,15,52,9.60
2018,04,26,15,53,8.10
2018,04,26,15,54,6.40
2018,04,26,15,55,8.10
2018,04,26,15,56,6.40
2018,04,26,15,57,3.20
2018,04,26,15,58,4.80
2018,04,26,15,59,3.20
2018,04,26,16,00,6.40
2018,04,26,16,01,4.80
2018,04,26,16,02,6.40
2018,04,26,16,03,3.20
2018,04,26,16,04,4.80
2018,04,26,16,05,6.40
2018,04,26,16,06,4.80
2018,04,26,16,07,6.40
2018,04,26,16,08,4.80
2018,04,26,16,09,4.80
2018,04,26,16,10,6.40
2018,04,26,16,11,4.80
2018,04,26,16,12,6.40
2018,04,26,16,13,8.10
2018,04,26,16,14,6.40
2018,04,26,16,15,6.40
2018,04,26,16,16,6.40
2018,04,26,16,17,8.10
2018,04,26,16,18,8.10
2018,04,26,16,19,6.40
2018,04,26,16,20,6.40
2018,04,26,16,21,6.40
2018,04,26,16,22,6.40
2018,04,26,16,23,6.40
2018,04,26,16,24,4.80
2018,04,26,16,25,4.80
2018,04,26,16,26,4.80
2018,04,26,16,27,1.60
2018,04,26,16,28,8.10
2018,04,26,16,29,4.80
2018,04,26,16,30,6.40
2018,04,26,16,31,6.40
2018,04,26,16,32,3.20
2018,04,26,16,33,4.80
2018,04,26,16,34,3.20
2018,04,26,16,35,1.60
2018,04,26,16,37,3.20
2018,04,26,16,38,3.20
2018,04,26,16,39,4.80
2018,04,26,16,40,3.20
2018,04,26,16,43,1.60
2018,04,26,16,46,1.60
2018,04,26,16,47,4.80
2018,04,26,16,48,3.20
2018,04,26,16,49,1.60
2018,04,26,16,50,1.60
2018,04,26,16,51,1.60
2018,04,26,16,52,3.20
2018,04,26,16,53,3.20
2018,04,26,16,54,4.80
2018,04,26,16,55,4.80
2018,04,26,16,56,1.60
2018,04,26,16,57,3.20
2018,04,26,16,59,1.60
2018,04,26,17,00,3.20
2018,04,26,17,01,3.20
2018,04,26,17,02,1.60
2018,04,26,17,03,3.20
2018,04,26,17,04,4.80
2018,04,26,17,05,3.20
2018,04,26,17,06,1.60
2018,04,26,17,07,1.60
2018,04,26,17,08,1.60
2018,04,26,17,09,1.60
2018,04,26,17,10,6.40
2018,04,26,17,11,6.40
2018,04,26,17,12,8.10
2018,04,26,17,13,6.40
2018,04,26,17,14,8.10
2018,04,26,17,15,8.10
2018,04,26,17,16,8.10
2018,04,26,17,17,9.60
2018,04,26,17,18,4.80
2018,04,26,17,19,1.60
2018,04,26,17,20,1.60
2018,04,26,17,22,1.60
2018,04,26,17,23,11.30
2018,04,26,17,24,9.60
2018,04,26,17,25,11.30
2018,04,26,17,26,14.50
2018,04,26,17,27,11.30
2018,04,26,17,28,9.60
2018,04,26,17,29,8.10
2018,04,26,17,30,16.10
2018,04,26,17,31,14.50
2018,04,26,17,32,11.30
2018,04,26,17,33,6.40
2018,04,26,17,34,8.10
2018,04,26,17,35,4.80
2018,04,26,17,36,6.40
2018,04,26,17,37,9.60
2018,04,26,17,38,8.10
2018,04,26,17,39,12.90
2018,04,26,17,40,6.40
2018,04,26,17,41,8.10
2018,04,26,17,42,6.40
2018,04,26,17,43,4.80
2018,04,26,17,44,6.40
2018,04,26,17,45,6.40
2018,04,26,17,46,1.60
2018,04,26,17,47,6.40
2018,04,26,17,48,3.20
2018,04,26,17,49,1.60
2018,04,26,17,50,8.10
2018,04,26,17,51,3.20
2018,04,26,17,52,4.80
2018,04,26,17,53,4.80
2018,04,26,17,54,1.60
2018,04,26,17,55,4.80
2018,04,26,17,56,3.20
2018,04,26,17,57,8.10
2018,04,26,17,58,3.20
2018,04,26,17,59,3.20
2018,04,26,18,00,1.60
2018,04,26,18,01,1.60
2018,04,26,18,02,8.10
2018,04,26,18,03,8.10
2018,04,26,18,04,3.20
2018,04,26,18,05,4.80
2018,04,26,18,06,3.20
2018,04,26,18,07,3.20
2018,04,26,18,08,4.80
2018,04,26,18,09,4.80
2018,04,26,18,10,4.80
2018,04,26,18,11,3.20
2018,04,26,18,13,1.60
2018,04,26,18,18,1.60
2018,04,26,18,19,3.20
2018,04,26,18,20,4.80
2018,04,26,18,21,4.80
2018,04,26,18,22,4.80
2018,04,26,18,23,1.60
2018,04,26,18,24,4.80
2018,04,26,18,25,4.80
2018,04,26,18,26,4.80
2018,04,26,18,27,9.60
2018,04,26,18,28,9.60
2018,04,26,18,29,6.40
2018,04,26,18,30,8.10
2018,04,26,18,31,6.40
2018,04,26,18,32,8.10
2018,04,26,18,33,9.60
2018,04,26,18,34,8.10
2018,04,26,18,35,9.60
2018,04,26,18,36,8.10
2018,04,26,18,37,8.10
2018,04,26,18,38,4.80
2018,04,26,18,39,8.10
2018,04,26,18,40,9.60
2018,04,26,18,41,8.10
2018,04,26,18,42,9.60
2018,04,26,18,43,6.40
2018,04,26,18,44,3.20
2018,04,26,18,45,3.20
2018,04,26,18,46,3.20
2018,04,26,18,47,8.10
2018,04,26,18,48,6.40
2018,04,26,18,49,6.40
2018,04,26,18,50,8.10
2018,04,26,18,51,6.40
2018,04,26,18,52,9.60
2018,04,26,18,53,9.60
2018,04,26,18,54,6.40
2018,04,26,18,55,8.10
2018,04,26,18,56,8.10
2018,04,26,18,57,4.80
2018,04,26,18,58,4.80
2018,04,26,18,59,3.20
2018,04,26,19,00,1.60
2018,04,26,19,01,6.40
2018,04,26,19,02,8.10
2018,04,26,19,03,4.80
2018,04,26,19,04,4.80
2018,04,26,19,05,3.20
2018,04,26,19,06,1.60
2018,04,26,19,07,1.60
2018,04,26,19,08,1.60
2018,04,26,19,09,1.60
2018,04,26,19,10,1.60
2018,04,26,19,11,4.80
2018,04,26,19,12,6.40
2018,04,26,19,13,3.20
2018,04,26,19,14,4.80
2018,04,26,19,15,4.80
2018,04,26,19,16,6.40
2018,04,26,19,17,6.40
2018,04,26,19,18,4.80
2018,04,26,19,19,4.80
2018,04,26,19,20,3.20
2018,04,26,19,21,4.80
2018,04,26,19,22,4.80
2018,04,26,19,23,3.20
2018,04,26,19,24,4.80
2018,04,26,19,25,4.80
2018,04,26,19,26,4.80
2018,04,26,19,27,4.80
2018,04,26,19,28,4.80
2018,04,26,19,29,4.80
2018,04,26,19,30,1.60
2018,04,26,19,32,1.60
2018,04,26,19,33,1.60
2018,04,26,19,34,3.20
2018,04,26,19,35,3.20
2018,04,26,19,36,3.20
2018,04,26,19,37,6.40
2018,04,26,19,38,4.80
2018,04,26,19,39,4.80
2018,04,26,19,40,4.80
2018,04,26,19,41,6.40
2018,04,26,19,42,4.80
2018,04,26,19,43,3.20
2018,04,26,19,44,3.20
2018,04,26,19,45,1.60
2018,04,26,19,46,1.60
2018,04,26,19,47,3.20
2018,04,26,19,48,1.60
2018,04,26,19,49,4.80
2018,04,26,19,50,4.80
2018,04,26,19,51,4.80
2018,04,26,19,52,4.80
2018,04,26,19,53,4.80
2018,04,26,19,54,3.20
2018,04,26,19,55,1.60
2018,04,26,19,59,1.60
2018,04,26,20,00,1.60
2018,04,26,20,01,1.60
2018,04,26,20,03,1.60
2018,04,26,20,15,1.60
2018,04,26,20,18,1.60
2018,04,26,20,20,1.60
2018,04,26,20,21,1.60
2018,04,26,20,25,1.60
2018,04,26,20,27,3.20
2018,04,26,20,28,3.20
2018,04,26,20,29,3.20
2018,04,26,20,30,1.60
2018,04,26,20,31,1.60
2018,04,26,20,38,1.60
2018,04,26,20,44,1.60
2018,04,26,20,57,1.60
2018,04,26,20,58,1.60
2018,04,26,21,11,1.60
2018,04,26,21,12,1.60
2018,04,26,21,13,1.60
2018,04,26,21,15,1.60
2018,04,26,21,22,3.20
2018,04,26,21,23,3.20
2018,04,26,21,25,4.80
2018,04,26,21,26,1.60
2018,04,26,21,28,1.60
2018,04,26,21,30,3.20